Location: Gull Harbor
(47.1000°N, 122.9000°W)
Time: 18:11:50
(UTC-07:00)

Envisat - Visible Passes

Search period start: 21 October 2017 00:00
Search period end: 31 October 2017 00:00
Orbit: 764 x 766 km, 98.2° (Epoch: 21 October)

Date Brightness Start Highest point End Pass type
(mag) Time Alt. Az. Time Alt. Az. Time Alt. Az.
21 Oct 4.0 19:42:01 24° ENE 19:42:30 24° ENE 19:46:32 10° N visible
21 Oct 4.0 21:22:14 44° WNW 21:22:14 44° WNW 21:26:11 10° NNW visible
22 Oct 4.7 19:05:02 12° ENE 19:06:15 13° NE 19:08:28 10° NNE visible
22 Oct 3.1 20:45:14 62° N 20:45:14 62° N 20:49:33 10° N visible
22 Oct 5.7 22:25:28 14° WNW 22:25:28 14° WNW 22:26:58 10° NW visible
23 Oct 3.5 20:08:15 37° ENE 20:08:15 37° ENE 20:12:34 10° N visible
23 Oct 4.9 21:48:29 26° WNW 21:48:29 26° WNW 21:51:28 10° NNW visible
24 Oct 4.3 19:31:16 20° ENE 19:31:31 20° ENE 19:35:09 10° NNE visible
24 Oct 3.9 21:11:30 45° NW 21:11:30 45° NW 21:15:08 10° NNW visible
25 Oct 4.9 18:54:24 10° ENE 18:55:20 10° NE 18:56:16 10° NE visible
25 Oct 3.4 20:34:30 49° NNE 20:34:30 49° NNE 20:38:24 10° N visible
25 Oct 5.6 22:14:43 16° WNW 22:14:43 16° WNW 22:16:22 10° NW visible
26 Oct 3.9 19:57:31 30° NE 19:57:31 30° NE 20:01:18 10° N visible
26 Oct 4.8 21:37:43 28° NW 21:37:43 28° NW 21:40:31 10° NNW visible
27 Oct 4.5 19:20:31 17° ENE 19:20:32 17° ENE 19:23:41 10° NNE visible
27 Oct 3.9 21:00:43 41° NNW 21:00:43 41° NNW 21:04:03 10° NNW visible
28 Oct 3.7 20:23:44 38° NNE 20:23:44 38° NNE 20:27:12 10° N visible
28 Oct 5.5 22:03:57 17° NW 22:03:57 17° NW 22:05:37 10° NW visible
29 Oct 4.2 19:46:44 25° NE 19:46:44 25° NE 19:49:59 10° N visible
29 Oct 4.7 21:26:57 28° NW 21:26:57 28° NW 21:29:32 10° NNW visible
30 Oct 4.7 19:09:44 14° NE 19:09:44 14° NE 19:12:06 10° NNE visible
30 Oct 4.1 20:49:57 36° N 20:49:57 36° N 20:52:56 10° NNW visible
